Regional Weather Roundup
Issued by NWS Glasgow, MT

Home | Current Version | Previous Version | Text Only | Print | Product List | Glossary On
Versions: 1 2 3 4 5 6 7 8 9 10 11 12 13 14 15 16 17 18 19 20 21 22 23 24 25 26 27
000
ASUS45 KGGW 261015
RWRGGW
HOURLY REGIONAL WEATHER ROUNDUP FOR NORTHEAST MONTANA
NATIONAL WEATHER SERVICE GLASGOW MONTANA
400 AM MDT THU MAY 26 2016

NOTE: "FAIR" INDICATES FEW OR NO CLOUDS BELOW 12,000 FEET WITH NO
SIGNIFICANT WEATHER AND/OR OBSTRUCTIONS TO VISISBILITY.

NORTHEAST MONTANA


CITY           SKY/WX    TMP DP  RH WIND       PRES   REMARKS
GLASGOW        CLEAR     43  41  93 W5        29.83R
PLENTYWOOD       N/A     51  49  92 W7          N/A
WOLF POINT     CLOUDY    43  41  93 CALM      29.82F
JORDAN           N/A     50  45  83 W7        29.85F
WINNETT          N/A     41  39  93 S3          N/A
SIDNEY         PTCLDY    46  44  93 SW7       29.82S
GLENDIVE       CLOUDY    50  46  87 NW3       29.85R
MALTA            N/A     49  48  97 SW6         N/A
SCOBEY           N/A     49  42  77 W10       29.81S HAZE
OPHEIM           N/A     43  43 100 N3        29.68F

FORT PECK REPORTS


CITY           SKY/WX    TMP DP  RH WIND       PRES   REMARKS
FORT PECK        N/A     49  47  93 W8          N/A
THE PINES        N/A     48  42  80 W6G14       N/A

SOUTHEAST MONTANA


CITY           SKY/WX    TMP DP  RH WIND       PRES   REMARKS
BILLINGS       PTCLDY    50  42  74 W12       29.93S
MILES CITY     PTCLDY    49  44  83 W10       29.87R
BAKER          PTCLDY    47  43  86 W9        29.86S
LIVINGSTON     CLOUDY    47  39  74 W8        29.98S

CENTRAL MONTANA


CITY           SKY/WX    TMP DP  RH WIND       PRES   REMARKS
HAVRE            N/A    N/A N/A N/A MISG      29.91R
LEWISTOWN      MOCLDY    45  40  82 SW7       29.93S
GREAT FALLS    CLOUDY    46  42  86 SW7       29.94S
CUT BANK       MOCLDY    41  40  96 NW7       29.95R
HELENA         CLOUDY    49  41  74 VRB3      29.98R
BUTTE          CLEAR     37  34  89 SE5       30.06S
BOZEMAN        CLOUDY    49  40  71 SW6       30.01R

WESTERN MONTANA


CITY           SKY/WX    TMP DP  RH WIND       PRES   REMARKS
MISSOULA       CLOUDY    51  46  83 CALM      30.04R
KALISPELL      NOT AVBL

NORTH DAKOTA


CITY           SKY/WX    TMP DP  RH WIND       PRES   REMARKS
WILLISTON      FOG       47  46  97 NW6       29.80F VSB 3/4
DICKINSON      CLEAR     42  38  85 W3        29.81R
MINOT          CLOUDY    58  55  90 SW8       29.74R
BISMARCK       CLEAR     46  45  96 SW3       29.80S

SOUTHERN SASKATCHEWAN


CITY           SKY/WX    TMP DP  RH WIND       PRES   REMARKS
REGINA         LGT RAIN  52  52 100 N12       29.83S
ESTEVAN        LGT RAIN  54  52  94 VRB2      29.76S
SWIFT CURRENT  LGT RAIN  50  50 100 N7        29.88S FOG





USA.gov is the U.S. government's official web portal to all federal, state and local government web resources and services.